FW0386 Weather Reports


time (UTC)temp
C
wind
direction
speed
KPH
gust
KPH
rain 1hr
cm
rain 24hr
cm
rain mn
cm
humidity
%
barometer
mb
20260502231546 6 281 0.0 0.0 0.00 0.00 0.00 80 1019.9
20260502230025 6 281 0.0 1.6 0.00 0.00 0.00 80 1019.8
20260502224542 6 281 0.0 0.0 0.00 0.00 0.00 78 1020.0
20260502223047 7 281 0.0 0.0 0.00 0.00 0.00 75 1020.0
20260502221502 7 281 0.0 1.6 0.00 0.00 0.00 74 1020.1
20260502220012 7 281 0.0 0.0 0.00 0.00 0.00 74 1020.0
20260502214526 8 281 0.0 0.0 0.00 0.00 0.00 74 1020.0
20260502213028 8 281 0.0 0.0 0.00 0.00 0.00 73 1020.0
20260502211553 8 281 0.0 0.0 0.00 0.00 0.00 71 1020.1
20260502210004 9 281 0.0 1.6 0.00 0.00 0.00 71 1020.3
20260502204530 10 280 0.0 1.6 0.00 0.00 0.00 69 1020.3
20260502203104 10 280 0.0 1.6 0.00 0.00 0.00 67 1020.3
20260502201550 10 280 0.0 3.2 0.00 0.00 0.00 67 1020.3
20260502200004 10 272 0.0 1.6 0.00 0.00 0.00 70 1020.4
20260502194526 11 272 0.0 0.0 0.00 0.00 0.00 68 1020.5
20260502193037 11 272 0.0 1.6 0.00 0.00 0.00 67 1020.2
20260502191555 12 272 0.0 0.0 0.00 0.00 0.00 64 1020.2
20260502190007 12 272 0.0 1.6 0.00 0.00 0.00 61 1020.1
20260502184507 13 272 0.0 1.6 0.00 0.00 0.00 58 1020.0
20260502183029 15 268 0.0 1.6 0.00 0.00 0.00 56 1019.9
20260502181551 16 267 0.0 1.6 0.00 0.00 0.00 55 1019.8
20260502163003 22 118 0.0 4.8 0.00 0.00 0.00 31 1020.3
20260502161526 22 127 0.0 4.8 0.00 0.00 0.00 33 1020.4
20260502151541 22 117 1.6 6.4 0.00 0.00 0.00 32 1021.2
20260502123008 21 293 0.0 4.8 0.00 0.00 0.00 37 1023.0
20260502121528 21 18 1.6 11.3 0.00 0.00 0.00 37 1023.1
20260502114549 21 114 0.0 6.4 0.00 0.00 0.00 39 1023.5
20260502113054 21 257 0.0 8.0 0.00 0.00 0.00 40 1023.7
20260502111511 21 227 1.6 8.0 0.00 0.00 0.00 40 1023.9
20260502110023 21 102 0.0 9.7 0.00 0.00 0.00 41 1024.0
20260502104537 20 46 0.0 8.0 0.00 0.00 0.00 41 1024.3
20260502103055 20 122 1.6 8.0 0.00 0.00 0.00 40 1024.5
20260502101546 20 131 3.2 8.0 0.00 0.00 0.00 42 1024.6
20260502100104 19 339 1.6 8.0 0.00 0.00 0.00 41 1024.8
20260502091526 18 39 1.6 6.4 0.00 0.00 0.00 44 1025.3
20260502070025 16 126 0.0 3.2 0.00 0.00 0.00 60 1026.2
20260502064535 14 104 0.0 3.2 0.00 0.00 0.00 68 1026.4
20260502063052 13 103 0.0 3.2 0.00 0.00 0.00 66 1026.4
20260502061605 13 119 0.0 3.2 0.00 0.00 0.00 67 1026.4
20260502060020 11 119 0.0 1.6 0.00 0.00 0.00 72 1026.6
20260502054538 8 119 0.0 1.6 0.00 0.00 0.00 78 1026.6
20260502053037 7 119 0.0 1.6 0.00 0.00 0.00 82 1026.4
20260502051500 5 124 0.0 1.6 0.00 0.00 0.00 85 1026.4
20260502050011 4 270 0.0 0.0 0.00 0.00 0.00 87 1026.2
20260502044545 3 270 0.0 0.0 0.00 0.00 0.00 91 1026.3
20260502043045 2 270 0.0 0.0 0.00 0.00 0.00 91 1026.2
20260502041515 2 270 0.0 0.0 0.00 0.00 0.00 90 1026.2
20260502040034 2 286 0.0 0.0 0.00 0.00 0.00 90 1026.1
20260502034554 2 286 0.0 0.0 0.00 0.00 0.00 90 1026.1
20260502033046 2 286 0.0 3.2 0.00 0.00 0.00 90 1026.0
20260502031603 2 286 0.0 0.0 0.00 0.00 0.00 90 1026.1
20260502030049 2 286 0.0 0.0 0.00 0.00 0.00 90 1026.0
20260502024522 2 286 0.0 0.0 0.00 0.00 0.00 90 1026.2
20260502023016 3 286 0.0 0.0 0.00 0.00 0.00 89 1026.3
20260502021511 3 286 0.0 0.0 0.00 0.00 0.00 89 1026.3
20260502020007 3 286 0.0 0.0 0.00 0.00 0.00 89 1026.3
20260502014509 3 286 0.0 0.0 0.00 0.00 0.00 87 1026.3
20260502013003 3 286 0.0 0.0 0.00 0.00 0.00 86 1026.5
20260502011601 3 286 0.0 0.0 0.00 0.00 0.00 86 1026.5
20260502010057 4 286 0.0 0.0 0.00 0.00 0.00 86 1026.6
20260502004554 4 286 0.0 0.0 0.00 0.00 0.00 85 1026.6
20260502003054 4 286 0.0 1.6 0.00 0.00 0.00 85 1026.7
20260502001554 5 286 0.0 0.0 0.00 0.00 0.00 85 1026.8
20260502000056 5 286 0.0 0.0 0.00 0.00 0.00 87 1026.8
20260501234547 5 286 0.0 0.0 0.00 0.00 0.00 86 1026.8
20260501233044 5 286 0.0 0.0 0.00 0.00 0.00 85 1027.0